| time (UTC) | temp F | wind direction | speed MPH | gust MPH | rain 1hr in | rain 24hr in | rain mn in | humidity % | barometer mb |
| 20260905000220 | 83 | 172 | 5.0 | 11.0 | 0.00 | 0.00 | 0.00 | 26 | 1019.0 |
| 20260905000019 | 83 | 126 | 6.0 | 13.0 | 0.00 | 0.00 | 0.00 | 25 | 1019.7 |
| 20260904235719 | 83 | 129 | 4.0 | 11.0 | 0.00 | 0.00 | 0.00 | 26 | 1019.0 |
| 20260904235220 | 83 | 181 | 4.0 | 12.0 | 0.00 | 0.00 | 0.00 | 25 | 1018.8 |
| 20260904234721 | 84 | 98 | 5.0 | 12.0 | 0.00 | 0.00 | 0.00 | 26 | 1019.0 |
| 20260904234527 | 83 | 149 | 5.0 | 13.0 | 0.00 | 0.00 | 0.00 | 25 | 1019.6 |
| 20260904234218 | 84 | 127 | 4.0 | 12.0 | 0.00 | 0.00 | 0.00 | 26 | 1019.0 |
| 20260904233217 | 84 | 118 | 6.0 | 15.0 | 0.00 | 0.00 | 0.00 | 26 | 1019.0 |
| 20260904233030 | 84 | 151 | 8.0 | 16.0 | 0.00 | 0.00 | 0.00 | 25 | 1019.4 |
| 20260904232716 | 84 | 100 | 5.0 | 11.0 | 0.00 | 0.00 | 0.00 | 25 | 1018.8 |
| 20260904232219 | 85 | 105 | 4.0 | 14.0 | 0.00 | 0.00 | 0.00 | 26 | 1018.8 |
| 20260904231717 | 85 | 122 | 3.0 | 14.0 | 0.00 | 0.00 | 0.00 | 25 | 1018.7 |
| 20260904231513 | 84 | 152 | 4.0 | 11.0 | 0.00 | 0.00 | 0.00 | 24 | 1019.4 |
| 20260904231219 | 85 | 148 | 3.0 | 9.0 | 0.00 | 0.00 | 0.00 | 25 | 1018.7 |
| 20260904230719 | 85 | 107 | 4.0 | 9.0 | 0.00 | 0.00 | 0.00 | 26 | 1018.7 |
| 20260904230216 | 85 | 165 | 4.0 | 10.0 | 0.00 | 0.00 | 0.00 | 25 | 1018.7 |
| 20260904230016 | 85 | 82 | 3.0 | 12.0 | 0.00 | 0.00 | 0.00 | 25 | 1019.2 |
| 20260904225714 | 86 | 148 | 4.0 | 10.0 | 0.00 | 0.00 | 0.00 | 25 | 1018.6 |
| 20260904225215 | 86 | 143 | 3.0 | 11.0 | 0.00 | 0.00 | 0.00 | 25 | 1018.6 |
| 20260904224715 | 85 | 217 | 4.0 | 11.0 | 0.00 | 0.00 | 0.00 | 26 | 1018.6 |
| 20260904224527 | 85 | 159 | 3.0 | 13.0 | 0.00 | 0.00 | 0.00 | 25 | 1019.2 |
| 20260904224216 | 85 | 6 | 4.0 | 12.0 | 0.00 | 0.00 | 0.00 | 26 | 1018.6 |
| 20260904223717 | 85 | 153 | 5.0 | 12.0 | 0.00 | 0.00 | 0.00 | 26 | 1018.7 |
| 20260904223215 | 86 | 148 | 4.0 | 12.0 | 0.00 | 0.00 | 0.00 | 25 | 1018.7 |
| 20260904223028 | 85 | 130 | 4.0 | 13.0 | 0.00 | 0.00 | 0.00 | 25 | 1019.4 |
| 20260904222716 | 86 | 146 | 4.0 | 14.0 | 0.00 | 0.00 | 0.00 | 27 | 1018.7 |
| 20260904222210 | 85 | 169 | 5.0 | 14.0 | 0.00 | 0.00 | 0.00 | 26 | 1018.7 |
| 20260904221543 | 85 | 122 | 5.0 | 15.0 | 0.00 | 0.00 | 0.00 | 26 | 1019.4 |
| 20260904221211 | 86 | 118 | 5.0 | 14.0 | 0.00 | 0.00 | 0.00 | 25 | 1018.8 |
| 20260904220710 | 85 | 102 | 5.0 | 14.0 | 0.00 | 0.00 | 0.00 | 26 | 1018.7 |
| 20260904220212 | 85 | 127 | 6.0 | 13.0 | 0.00 | 0.00 | 0.00 | 25 | 1018.8 |
| 20260904220012 | 85 | 115 | 4.0 | 15.0 | 0.00 | 0.00 | 0.00 | 26 | 1019.5 |
| 20260904215713 | 86 | 199 | 5.0 | 16.0 | 0.00 | 0.00 | 0.00 | 25 | 1018.8 |
| 20260904215212 | 86 | 203 | 4.0 | 16.0 | 0.00 | 0.00 | 0.00 | 26 | 1018.8 |
| 20260904214523 | 85 | 57 | 5.0 | 14.0 | 0.00 | 0.00 | 0.00 | 26 | 1019.6 |
| 20260904213706 | 85 | 60 | 5.0 | 12.0 | 0.00 | 0.00 | 0.00 | 26 | 1019.0 |
| 20260904213206 | 85 | 174 | 4.0 | 11.0 | 0.00 | 0.00 | 0.00 | 26 | 1019.0 |
| 20260904213026 | 84 | 136 | 2.0 | 12.0 | 0.00 | 0.00 | 0.00 | 26 | 1019.6 |
| 20260904212706 | 85 | 179 | 5.0 | 11.0 | 0.00 | 0.00 | 0.00 | 27 | 1019.0 |
| 20260904212208 | 86 | 79 | 5.0 | 15.0 | 0.00 | 0.00 | 0.00 | 25 | 1019.0 |
| 20260904211709 | 86 | 86 | 5.0 | 15.0 | 0.00 | 0.00 | 0.00 | 26 | 1019.1 |
| 20260904211535 | 86 | 71 | 4.0 | 16.0 | 0.00 | 0.00 | 0.00 | 25 | 1019.8 |
| 20260904210207 | 87 | 166 | 5.0 | 11.0 | 0.00 | 0.00 | 0.00 | 25 | 1019.2 |
| 20260904210042 | 86 | 84 | 3.0 | 12.0 | 0.00 | 0.00 | 0.00 | 26 | 1019.9 |
| 20260904205708 | 87 | 84 | 5.0 | 11.0 | 0.00 | 0.00 | 0.00 | 26 | 1019.2 |
| 20260904205208 | 86 | 282 | 4.0 | 10.0 | 0.00 | 0.00 | 0.00 | 26 | 1019.2 |
| 20260904204707 | 85 | 243 | 5.0 | 9.0 | 0.00 | 0.00 | 0.00 | 27 | 1019.2 |
| 20260904204516 | 84 | 80 | 5.0 | 10.0 | 0.00 | 0.00 | 0.00 | 26 | 1020.1 |
| 20260904204206 | 84 | 34 | 4.0 | 9.0 | 0.00 | 0.00 | 0.00 | 27 | 1019.3 |
| 20260904203707 | 84 | 124 | 3.0 | 9.0 | 0.00 | 0.00 | 0.00 | 26 | 1019.5 |
| 20260904203207 | 84 | 162 | 4.0 | 12.0 | 0.00 | 0.00 | 0.00 | 28 | 1019.5 |
| 20260904203030 | 84 | 281 | 3.0 | 13.0 | 0.00 | 0.00 | 0.00 | 26 | 1020.2 |
| 20260904202706 | 84 | 167 | 5.0 | 12.0 | 0.00 | 0.00 | 0.00 | 25 | 1019.5 |
| 20260904202207 | 85 | 155 | 4.0 | 11.0 | 0.00 | 0.00 | 0.00 | 26 | 1019.3 |
| 20260904201708 | 86 | 160 | 2.0 | 9.0 | 0.00 | 0.00 | 0.00 | 25 | 1019.5 |
| 20260904201531 | 85 | 155 | 2.0 | 5.0 | 0.00 | 0.00 | 0.00 | 26 | 1020.2 |
| 20260904201208 | 85 | 58 | 1.0 | 4.0 | 0.00 | 0.00 | 0.00 | 24 | 1019.5 |
| 20260904200705 | 85 | 165 | 1.0 | 4.0 | 0.00 | 0.00 | 0.00 | 24 | 1019.8 |
| 20260904200204 | 84 | 70 | 3.0 | 7.0 | 0.00 | 0.00 | 0.00 | 27 | 1019.7 |
| 20260904200031 | 84 | 159 | 2.0 | 8.0 | 0.00 | 0.00 | 0.00 | 24 | 1020.3 |
| 20260904195703 | 84 | 166 | 3.0 | 7.0 | 0.00 | 0.00 | 0.00 | 24 | 1019.7 |
| 20260904195203 | 85 | 252 | 3.0 | 7.0 | 0.00 | 0.00 | 0.00 | 24 | 1019.7 |
| 20260904194702 | 85 | 182 | 4.0 | 8.0 | 0.00 | 0.00 | 0.00 | 25 | 1019.8 |
| 20260904194618 | 85 | 162 | 4.0 | 9.0 | 0.00 | 0.00 | 0.00 | 23 | 1020.5 |
| 20260904194203 | 86 | 142 | 4.0 | 9.0 | 0.00 | 0.00 | 0.00 | 25 | 1019.8 |
| 20260904193703 | 86 | 167 | 5.0 | 10.0 | 0.00 | 0.00 | 0.00 | 25 | 1019.9 |
| 20260904193034 | 85 | 161 | 5.0 | 10.0 | 0.00 | 0.00 | 0.00 | 24 | 1020.5 |
| 20260904192701 | 86 | 65 | 4.0 | 9.0 | 0.00 | 0.00 | 0.00 | 25 | 1020.1 |
| 20260904192202 | 86 | 82 | 4.0 | 8.0 | 0.00 | 0.00 | 0.00 | 25 | 1020.1 |
| 20260904191700 | 86 | 117 | 3.0 | 8.0 | 0.00 | 0.00 | 0.00 | 24 | 1020.1 |
| 20260904191524 | 86 | 87 | 4.0 | 9.0 | 0.00 | 0.00 | 0.00 | 23 | 1020.7 |
| 20260904191159 | 86 | 101 | 3.0 | 8.0 | 0.00 | 0.00 | 0.00 | 23 | 1020.1 |
| 20260904190158 | 87 | 135 | 3.0 | 9.0 | 0.00 | 0.00 | 0.00 | 23 | 1020.1 |
| 20260904190032 | 86 | 283 | 4.0 | 9.0 | 0.00 | 0.00 | 0.00 | 23 | 1020.8 |
| 20260904185658 | 87 | 217 | 2.0 | 8.0 | 0.00 | 0.00 | 0.00 | 23 | 1020.3 |
| 20260904184657 | 85 | 135 | 4.0 | 11.0 | 0.00 | 0.00 | 0.00 | 24 | 1020.3 |
| 20260904184534 | 85 | 136 | 4.0 | 11.0 | 0.00 | 0.00 | 0.00 | 23 | 1020.9 |
| 20260904184152 | 86 | 51 | 2.0 | 6.0 | 0.00 | 0.00 | 0.00 | 24 | 1020.2 |
| 20260904183652 | 86 | 154 | 1.0 | 6.0 | 0.00 | 0.00 | 0.00 | 25 | 1020.3 |
| 20260904183152 | 85 | 27 | 2.0 | 5.0 | 0.00 | 0.00 | 0.00 | 24 | 1020.4 |
| 20260904183034 | 85 | 202 | 2.0 | 5.0 | 0.00 | 0.00 | 0.00 | 23 | 1021.3 |
| 20260904182653 | 85 | 11 | 2.0 | 6.0 | 0.00 | 0.00 | 0.00 | 26 | 1020.4 |
| 20260904182153 | 86 | 39 | 2.0 | 6.0 | 0.00 | 0.00 | 0.00 | 26 | 1020.6 |
| 20260904181652 | 86 | 154 | 2.0 | 6.0 | 0.00 | 0.00 | 0.00 | 22 | 1020.7 |
| 20260904181524 | 85 | 130 | 1.0 | 10.0 | 0.00 | 0.00 | 0.00 | 23 | 1021.3 |
| 20260904180005 | 85 | 222 | 1.0 | 8.0 | 0.00 | 0.00 | 0.00 | 23 | 1021.4 |
| 20260904175649 | 85 | 309 | 2.0 | 8.0 | 0.00 | 0.00 | 0.00 | 24 | 1020.9 |
| 20260904175149 | 85 | 154 | 4.0 | 11.0 | 0.00 | 0.00 | 0.00 | 25 | 1020.9 |
| 20260904174647 | 84 | 105 | 3.0 | 11.0 | 0.00 | 0.00 | 0.00 | 25 | 1020.9 |
| 20260904174510 | 84 | 67 | 5.0 | 11.0 | 0.00 | 0.00 | 0.00 | 23 | 1021.7 |
| 20260904174146 | 84 | 74 | 2.0 | 6.0 | 0.00 | 0.00 | 0.00 | 27 | 1021.0 |
| 20260904173646 | 84 | 85 | 3.0 | 8.0 | 0.00 | 0.00 | 0.00 | 25 | 1020.9 |
| 20260904173148 | 84 | 123 | 3.0 | 8.0 | 0.00 | 0.00 | 0.00 | 24 | 1021.0 |
| 20260904173018 | 83 | 74 | 2.0 | 9.0 | 0.00 | 0.00 | 0.00 | 23 | 1021.8 |
| 20260904172148 | 85 | 141 | 2.0 | 5.0 | 0.00 | 0.00 | 0.00 | 24 | 1021.0 |
| 20260904171643 | 84 | 116 | 2.0 | 8.0 | 0.00 | 0.00 | 0.00 | 22 | 1021.0 |
| 20260904171525 | 84 | 139 | 1.0 | 9.0 | 0.00 | 0.00 | 0.00 | 22 | 1021.9 |
| 20260904170630 | 84 | 122 | 2.0 | 6.0 | 0.00 | 0.00 | 0.00 | 23 | 1021.0 |
| 20260904170124 | 84 | 67 | 1.0 | 6.0 | 0.00 | 0.00 | 0.00 | 25 | 1021.0 |
| 20260904170028 | 83 | 100 | 1.0 | 4.0 | 0.00 | 0.00 | 0.00 | 22 | 1021.8 |
| 20260904165618 | 83 | 98 | 1.0 | 4.0 | 0.00 | 0.00 | 0.00 | 25 | 1021.0 |
| 20260904165113 | 83 | 251 | 1.0 | 4.0 | 0.00 | 0.00 | 0.00 | 22 | 1021.0 |
| 20260904164606 | 83 | 308 | 1.0 | 3.0 | 0.00 | 0.00 | 0.00 | 22 | 1021.0 |
| 20260904164509 | 83 | 192 | 0.0 | 3.0 | 0.00 | 0.00 | 0.00 | 22 | 1021.8 |
| 20260904164059 | 83 | 188 | 2.0 | 4.0 | 0.00 | 0.00 | 0.00 | 23 | 1021.2 |
| 20260904163554 | 83 | 77 | 2.0 | 4.0 | 0.00 | 0.00 | 0.00 | 23 | 1021.2 |
| 20260904163048 | 84 | 60 | 2.0 | 4.0 | 0.00 | 0.00 | 0.00 | 25 | 1021.0 |
| 20260904163012 | 83 | 73 | 1.0 | 5.0 | 0.00 | 0.00 | 0.00 | 24 | 1021.8 |
| 20260904162542 | 83 | 146 | 2.0 | 4.0 | 0.00 | 0.00 | 0.00 | 23 | 1021.0 |
| 20260904161530 | 83 | 124 | 2.0 | 4.0 | 0.00 | 0.00 | 0.00 | 25 | 1021.0 |
| 20260904161517 | 83 | 109 | 2.0 | 4.0 | 0.00 | 0.00 | 0.00 | 25 | 1021.7 |
| 20260904161026 | 84 | 82 | 1.0 | 3.0 | 0.00 | 0.00 | 0.00 | 24 | 1020.9 |
| 20260904160518 | 84 | 101 | 1.0 | 3.0 | 0.00 | 0.00 | 0.00 | 24 | 1020.8 |
| 20260904160028 | 83 | 67 | 0.0 | 3.0 | 0.00 | 0.00 | 0.00 | 25 | 1021.5 |
| 20260904155506 | 84 | 75 | 0.0 | 2.0 | 0.00 | 0.00 | 0.00 | 24 | 1020.8 |
| 20260904154527 | 82 | 271 | 1.0 | 4.0 | 0.00 | 0.00 | 0.00 | 22 | 1021.5 |
| 20260904153948 | 83 | 289 | 1.0 | 4.0 | 0.00 | 0.00 | 0.00 | 23 | 1020.8 |
| 20260904153448 | 82 | 103 | 1.0 | 4.0 | 0.00 | 0.00 | 0.00 | 24 | 1020.8 |
| 20260904153021 | 82 | 250 | 1.0 | 3.0 | 0.00 | 0.00 | 0.00 | 24 | 1021.5 |
| 20260904152949 | 82 | 276 | 0.0 | 3.0 | 0.00 | 0.00 | 0.00 | 25 | 1020.7 |
| 20260904152448 | 81 | 172 | 1.0 | 3.0 | 0.00 | 0.00 | 0.00 | 25 | 1020.8 |
| 20260904151950 | 81 | 15 | 1.0 | 2.0 | 0.00 | 0.00 | 0.00 | 27 | 1020.8 |
| 20260904151531 | 80 | 65 | 1.0 | 4.0 | 0.00 | 0.00 | 0.00 | 25 | 1021.4 |
| 20260904151449 | 80 | 60 | 1.0 | 4.0 | 0.00 | 0.00 | 0.00 | 26 | 1020.8 |
| 20260904150443 | 79 | 294 | 1.0 | 5.0 | 0.00 | 0.00 | 0.00 | 27 | 1020.8 |
| 20260904150028 | 78 | 64 | 1.0 | 4.0 | 0.00 | 0.00 | 0.00 | 30 | 1021.4 |
| 20260904145944 | 78 | 56 | 1.0 | 4.0 | 0.00 | 0.00 | 0.00 | 29 | 1020.8 |
| 20260904145442 | 78 | 302 | 1.0 | 5.0 | 0.00 | 0.00 | 0.00 | 30 | 1020.8 |
| 20260904144528 | 77 | 311 | 0.0 | 8.0 | 0.00 | 0.00 | 0.00 | 28 | 1021.4 |
| 20260904144446 | 78 | 316 | 2.0 | 7.0 | 0.00 | 0.00 | 0.00 | 28 | 1020.8 |
| 20260904143942 | 77 | 309 | 2.0 | 7.0 | 0.00 | 0.00 | 0.00 | 28 | 1020.8 |
| 20260904143442 | 77 | 299 | 1.0 | 5.0 | 0.00 | 0.00 | 0.00 | 30 | 1020.8 |
| 20260904143030 | 76 | 323 | 1.0 | 5.0 | 0.00 | 0.00 | 0.00 | 28 | 1021.3 |
| 20260904142942 | 77 | 336 | 0.0 | 5.0 | 0.00 | 0.00 | 0.00 | 29 | 1020.8 |
| 20260904142442 | 76 | 359 | 1.0 | 4.0 | 0.00 | 0.00 | 0.00 | 32 | 1020.7 |
| 20260904141943 | 75 | 312 | 1.0 | 4.0 | 0.00 | 0.00 | 0.00 | 30 | 1020.7 |
| 20260904141511 | 74 | 277 | 1.0 | 4.0 | 0.00 | 0.00 | 0.00 | 29 | 1021.3 |
| 20260904141443 | 75 | 328 | 1.0 | 4.0 | 0.00 | 0.00 | 0.00 | 31 | 1020.7 |
| 20260904140937 | 74 | 279 | 0.0 | 4.0 | 0.00 | 0.00 | 0.00 | 31 | 1020.7 |
| 20260904140017 | 73 | 328 | 0.0 | 3.0 | 0.00 | 0.00 | 0.00 | 32 | 1021.0 |
| 20260904135925 | 73 | 321 | 0.0 | 3.0 | 0.00 | 0.00 | 0.00 | 33 | 1020.6 |
| 20260904135419 | 72 | 323 | 1.0 | 4.0 | 0.00 | 0.00 | 0.00 | 34 | 1020.4 |
| 20260904134913 | 71 | 321 | 0.0 | 4.0 | 0.00 | 0.00 | 0.00 | 35 | 1020.4 |
| 20260904134526 | 70 | 295 | 0.0 | 2.0 | 0.00 | 0.00 | 0.00 | 38 | 1020.8 |
| 20260904133901 | 69 | 316 | 0.0 | 2.0 | 0.00 | 0.00 | 0.00 | 39 | 1020.3 |
| 20260904133356 | 68 | 316 | 0.0 | 4.0 | 0.00 | 0.00 | 0.00 | 38 | 1020.2 |
| 20260904133028 | 67 | 355 | 0.0 | 4.0 | 0.00 | 0.00 | 0.00 | 39 | 1020.7 |
| 20260904132850 | 67 | 6 | 0.0 | 4.0 | 0.00 | 0.00 | 0.00 | 42 | 1020.3 |
| 20260904131511 | 64 | 331 | 0.0 | 1.0 | 0.00 | 0.00 | 0.00 | 44 | 1020.4 |
| 20260904130824 | 64 | 313 | 0.0 | 1.0 | 0.00 | 0.00 | 0.00 | 46 | 1019.7 |
| 20260904130319 | 64 | 313 | 0.0 | 1.0 | 0.00 | 0.00 | 0.00 | 43 | 1019.6 |
| 20260904130014 | 64 | 338 | 0.0 | 0.0 | 0.00 | 0.00 | 0.00 | 42 | 1020.0 |
| 20260904125812 | 65 | 345 | 0.0 | 0.0 | 0.00 | 0.00 | 0.00 | 43 | 1019.5 |
| 20260904125307 | 65 | 333 | 0.0 | 0.0 | 0.00 | 0.00 | 0.00 | 43 | 1019.3 |
| 20260904124801 | 65 | 333 | 0.0 | 2.0 | 0.00 | 0.00 | 0.00 | 39 | 1019.5 |
| 20260904124519 | 64 | 327 | 0.0 | 3.0 | 0.00 | 0.00 | 0.00 | 38 | 1019.8 |
| 20260904124254 | 65 | 343 | 0.0 | 3.0 | 0.00 | 0.00 | 0.00 | 38 | 1019.3 |
| 20260904123750 | 64 | 329 | 0.0 | 3.0 | 0.00 | 0.00 | 0.00 | 39 | 1019.2 |
| 20260904123026 | 63 | 295 | 0.0 | 5.0 | 0.00 | 0.00 | 0.00 | 39 | 1019.7 |
| 20260904122736 | 63 | 322 | 0.0 | 5.0 | 0.00 | 0.00 | 0.00 | 40 | 1019.2 |
| 20260904121725 | 62 | 304 | 0.0 | 3.0 | 0.00 | 0.00 | 0.00 | 39 | 1019.1 |
| 20260904121536 | 62 | 311 | 0.0 | 4.0 | 0.00 | 0.00 | 0.00 | 39 | 1019.6 |
| 20260904121219 | 62 | 319 | 1.0 | 4.0 | 0.00 | 0.00 | 0.00 | 40 | 1019.1 |
| 20260904120714 | 62 | 290 | 0.0 | 4.0 | 0.00 | 0.00 | 0.00 | 39 | 1018.8 |
| 20260904120207 | 62 | 338 | 0.0 | 4.0 | 0.00 | 0.00 | 0.00 | 40 | 1018.8 |
| 20260904120037 | 61 | 317 | 0.0 | 4.0 | 0.00 | 0.00 | 0.00 | 40 | 1019.3 |
| 20260904115701 | 61 | 353 | 0.0 | 4.0 | 0.00 | 0.00 | 0.00 | 42 | 1018.7 |
| 20260904115156 | 60 | 335 | 0.0 | 2.0 | 0.00 | 0.00 | 0.00 | 43 | 1018.7 |
| 20260904114649 | 60 | 337 | 0.0 | 1.0 | 0.00 | 0.00 | 0.00 | 45 | 1018.7 |
| 20260904114516 | 59 | 328 | 0.0 | 1.0 | 0.00 | 0.00 | 0.00 | 44 | 1019.2 |
| 20260904114144 | 59 | 333 | 0.0 | 1.0 | 0.00 | 0.00 | 0.00 | 47 | 1018.6 |
| 20260904113131 | 60 | 342 | 0.0 | 0.0 | 0.00 | 0.00 | 0.00 | 50 | 1018.6 |
| 20260904113033 | 60 | 336 | 0.0 | 1.0 | 0.00 | 0.00 | 0.00 | 49 | 1019.3 |
| 20260904112119 | 61 | 342 | 0.0 | 1.0 | 0.00 | 0.00 | 0.00 | 46 | 1018.7 |
| 20260904111613 | 61 | 342 | 0.0 | 0.0 | 0.00 | 0.00 | 0.00 | 46 | 1018.6 |
| 20260904111528 | 61 | 336 | 0.0 | 0.0 | 0.00 | 0.00 | 0.00 | 45 | 1019.1 |
| 20260904111108 | 61 | 342 | 0.0 | 1.0 | 0.00 | 0.00 | 0.00 | 43 | 1018.6 |
| 20260904110602 | 61 | 342 | 0.0 | 2.0 | 0.00 | 0.00 | 0.00 | 45 | 1018.5 |
| 20260904110055 | 59 | 334 | 0.0 | 2.0 | 0.00 | 0.00 | 0.00 | 45 | 1018.5 |
| 20260904110031 | 59 | 333 | 0.0 | 2.0 | 0.00 | 0.00 | 0.00 | 46 | 1019.0 |
| 20260904105549 | 57 | 321 | 0.0 | 2.0 | 0.00 | 0.00 | 0.00 | 48 | 1018.4 |
| 20260904105044 | 56 | 328 | 0.0 | 1.0 | 0.00 | 0.00 | 0.00 | 53 | 1018.4 |
| 20260904104537 | 56 | 359 | 0.0 | 1.0 | 0.00 | 0.00 | 0.00 | 57 | 1018.2 |
| 20260904104533 | 55 | 352 | 0.0 | 1.0 | 0.00 | 0.00 | 0.00 | 58 | 1018.9 |
| 20260904103525 | 56 | 330 | 0.0 | 1.0 | 0.00 | 0.00 | 0.00 | 60 | 1018.1 |
| 20260904103026 | 56 | 321 | 0.0 | 1.0 | 0.00 | 0.00 | 0.00 | 64 | 1018.2 |
| 20260904103022 | 55 | 316 | 0.0 | 1.0 | 0.00 | 0.00 | 0.00 | 63 | 1018.7 |
| 20260904102522 | 56 | 322 | 0.0 | 0.0 | 0.00 | 0.00 | 0.00 | 66 | 1018.2 |
| 20260904101527 | 57 | 317 | 0.0 | 0.0 | 0.00 | 0.00 | 0.00 | 63 | 1018.4 |
| 20260904101524 | 57 | 322 | 0.0 | 0.0 | 0.00 | 0.00 | 0.00 | 64 | 1018.0 |
| 20260904101019 | 58 | 322 | 0.0 | 1.0 | 0.00 | 0.00 | 0.00 | 62 | 1018.0 |
| 20260904100517 | 58 | 322 | 0.0 | 1.0 | 0.00 | 0.00 | 0.00 | 62 | 1018.1 |
| 20260904100030 | 57 | 325 | 0.0 | 3.0 | 0.00 | 0.00 | 0.00 | 62 | 1018.5 |
| 20260904100016 | 58 | 330 | 0.0 | 1.0 | 0.00 | 0.00 | 0.00 | 62 | 1018.1 |
| 20260904095515 | 58 | 323 | 1.0 | 3.0 | 0.00 | 0.00 | 0.00 | 63 | 1018.0 |
| 20260904094533 | 57 | 319 | 1.0 | 3.0 | 0.00 | 0.00 | 0.00 | 66 | 1018.4 |
| 20260904094008 | 56 | 322 | 0.0 | 2.0 | 0.00 | 0.00 | 0.00 | 68 | 1018.0 |
| 20260904093506 | 56 | 335 | 0.0 | 2.0 | 0.00 | 0.00 | 0.00 | 69 | 1018.0 |
| 20260904093036 | 55 | 5 | 0.0 | 0.0 | 0.00 | 0.00 | 0.00 | 69 | 1018.3 |
| 20260904093003 | 55 | 1 | 0.0 | 0.0 | 0.00 | 0.00 | 0.00 | 70 | 1017.9 |
| 20260904092505 | 55 | 1 | 0.0 | 0.0 | 0.00 | 0.00 | 0.00 | 70 | 1018.0 |
| 20260904092006 | 55 | 1 | 0.0 | 0.0 | 0.00 | 0.00 | 0.00 | 69 | 1017.9 |
| 20260904091524 | 55 | 5 | 0.0 | 1.0 | 0.00 | 0.00 | 0.00 | 68 | 1018.2 |
| 20260904091504 | 56 | 1 | 0.0 | 0.0 | 0.00 | 0.00 | 0.00 | 69 | 1017.7 |
| 20260904091004 | 56 | 1 | 0.0 | 1.0 | 0.00 | 0.00 | 0.00 | 68 | 1017.7 |
| 20260904090504 | 56 | 1 | 0.0 | 1.0 | 0.00 | 0.00 | 0.00 | 68 | 1017.7 |
| 20260904090005 | 56 | 353 | 0.0 | 1.0 | 0.00 | 0.00 | 0.00 | 69 | 1017.7 |
| 20260904085503 | 55 | 321 | 0.0 | 0.0 | 0.00 | 0.00 | 0.00 | 70 | 1017.7 |
| 20260904085001 | 55 | 345 | 0.0 | 0.0 | 0.00 | 0.00 | 0.00 | 70 | 1017.9 |
| 20260904084508 | 55 | 338 | 0.0 | 0.0 | 0.00 | 0.00 | 0.00 | 69 | 1018.3 |
| 20260904084502 | 55 | 345 | 0.0 | 0.0 | 0.00 | 0.00 | 0.00 | 69 | 1017.9 |
| 20260904083957 | 56 | 345 | 0.0 | 0.0 | 0.00 | 0.00 | 0.00 | 69 | 1017.9 |
| 20260904083004 | 55 | 322 | 0.0 | 0.0 | 0.00 | 0.00 | 0.00 | 68 | 1018.5 |
| 20260904082457 | 56 | 328 | 0.0 | 0.0 | 0.00 | 0.00 | 0.00 | 69 | 1018.1 |
| 20260904081957 | 56 | 328 | 0.0 | 0.0 | 0.00 | 0.00 | 0.00 | 68 | 1018.1 |
| 20260904081514 | 56 | 322 | 0.0 | 0.0 | 0.00 | 0.00 | 0.00 | 67 | 1018.5 |
| 20260904081455 | 56 | 328 | 0.0 | 0.0 | 0.00 | 0.00 | 0.00 | 67 | 1018.0 |
| 20260904080958 | 57 | 328 | 0.0 | 0.0 | 0.00 | 0.00 | 0.00 | 66 | 1018.0 |
| 20260904080457 | 57 | 328 | 0.0 | 1.0 | 0.00 | 0.00 | 0.00 | 65 | 1018.0 |
| 20260904080008 | 57 | 324 | 0.0 | 1.0 | 0.00 | 0.00 | 0.00 | 64 | 1018.5 |
| 20260904075956 | 58 | 330 | 0.0 | 1.0 | 0.00 | 0.00 | 0.00 | 65 | 1018.1 |
| 20260904074509 | 58 | 335 | 0.0 | 0.0 | 0.00 | 0.00 | 0.00 | 63 | 1018.6 |
| 20260904074455 | 58 | 341 | 0.0 | 0.0 | 0.00 | 0.00 | 0.00 | 63 | 1018.2 |
| 20260904073959 | 59 | 341 | 0.0 | 0.0 | 0.00 | 0.00 | 0.00 | 63 | 1018.1 |
| 20260904073456 | 59 | 341 | 0.0 | 0.0 | 0.00 | 0.00 | 0.00 | 62 | 1018.1 |
| 20260904073009 | 60 | 335 | 0.0 | 1.0 | 0.00 | 0.00 | 0.00 | 60 | 1018.7 |
| 20260904072957 | 60 | 341 | 0.0 | 0.0 | 0.00 | 0.00 | 0.00 | 61 | 1018.2 |
| 20260904072455 | 61 | 341 | 0.0 | 2.0 | 0.00 | 0.00 | 0.00 | 59 | 1018.4 |
| 20260904071957 | 61 | 338 | 0.0 | 2.0 | 0.00 | 0.00 | 0.00 | 58 | 1018.4 |
| 20260904071510 | 60 | 329 | 0.0 | 2.0 | 0.00 | 0.00 | 0.00 | 58 | 1018.6 |
| 20260904070957 | 61 | 325 | 0.0 | 2.0 | 0.00 | 0.00 | 0.00 | 60 | 1018.4 |
| 20260904070457 | 61 | 333 | 0.0 | 2.0 | 0.00 | 0.00 | 0.00 | 59 | 1018.4 |
| 20260904070008 | 60 | 311 | 0.0 | 1.0 | 0.00 | 0.00 | 0.00 | 59 | 1018.8 |
| 20260904065958 | 61 | 316 | 0.0 | 1.0 | 0.00 | 0.00 | 0.00 | 59 | 1018.5 |
| 20260904064511 | 59 | 315 | 0.0 | 0.0 | 0.00 | 0.00 | 0.00 | 61 | 1018.9 |
| 20260904064458 | 59 | 320 | 0.0 | 0.0 | 0.00 | 0.00 | 0.00 | 62 | 1018.6 |
| 20260904063958 | 60 | 320 | 0.0 | 0.0 | 0.00 | 0.00 | 0.00 | 62 | 1018.7 |
| 20260904063013 | 60 | 315 | 0.0 | 0.0 | 0.00 | 0.00 | 0.00 | 60 | 1019.1 |
| 20260904062457 | 61 | 320 | 0.0 | 0.0 | 0.00 | 0.00 | 0.00 | 59 | 1018.6 |
| 20260904061956 | 61 | 320 | 0.0 | 0.0 | 0.00 | 0.00 | 0.00 | 58 | 1018.6 |
| 20260904061519 | 61 | 315 | 0.0 | 0.0 | 0.00 | 0.00 | 0.00 | 57 | 1019.1 |
| 20260904061455 | 61 | 320 | 0.0 | 0.0 | 0.00 | 0.00 | 0.00 | 57 | 1018.7 |
| 20260904060956 | 62 | 320 | 0.0 | 0.0 | 0.00 | 0.00 | 0.00 | 57 | 1018.6 |
| 20260904060455 | 62 | 320 | 0.0 | 0.0 | 0.00 | 0.00 | 0.00 | 56 | 1018.7 |
| 20260904060012 | 62 | 315 | 0.0 | 0.0 | 0.00 | 0.00 | 0.00 | 55 | 1019.2 |
| 20260904055956 | 63 | 320 | 0.0 | 0.0 | 0.00 | 0.00 | 0.00 | 55 | 1018.7 |
| 20260904055449 | 63 | 320 | 0.0 | 0.0 | 0.00 | 0.00 | 0.00 | 54 | 1018.7 |
| 20260904054944 | 64 | 320 | 0.0 | 0.0 | 0.00 | 0.00 | 0.00 | 53 | 1018.7 |
| 20260904054514 | 63 | 325 | 0.0 | 0.0 | 0.00 | 0.00 | 0.00 | 52 | 1019.3 |
| 20260904054438 | 64 | 331 | 0.0 | 0.0 | 0.00 | 0.00 | 0.00 | 53 | 1018.7 |
| 20260904053426 | 65 | 331 | 0.0 | 0.0 | 0.00 | 0.00 | 0.00 | 51 | 1018.7 |
| 20260904053010 | 65 | 322 | 0.0 | 0.0 | 0.00 | 0.00 | 0.00 | 52 | 1019.3 |
| 20260904052921 | 65 | 295 | 0.0 | 0.0 | 0.00 | 0.00 | 0.00 | 49 | 1018.8 |
| 20260904052414 | 66 | 288 | 0.0 | 0.0 | 0.00 | 0.00 | 0.00 | 48 | 1018.8 |
| 20260904051908 | 67 | 24 | 0.0 | 0.0 | 0.00 | 0.00 | 0.00 | 47 | 1018.8 |
| 20260904051524 | 67 | 257 | 0.0 | 2.0 | 0.00 | 0.00 | 0.00 | 46 | 1019.5 |
| 20260904051403 | 67 | 262 | 0.0 | 2.0 | 0.00 | 0.00 | 0.00 | 47 | 1018.8 |
| 20260904050856 | 67 | 264 | 0.0 | 2.0 | 0.00 | 0.00 | 0.00 | 45 | 1018.8 |
| 20260904050350 | 68 | 328 | 0.0 | 1.0 | 0.00 | 0.00 | 0.00 | 45 | 1018.8 |
| 20260904050014 | 68 | 272 | 0.0 | 0.0 | 0.00 | 0.00 | 0.00 | 44 | 1019.5 |
| 20260904045845 | 69 | 276 | 0.0 | 1.0 | 0.00 | 0.00 | 0.00 | 44 | 1018.8 |
| 20260904045338 | 69 | 276 | 0.0 | 2.0 | 0.00 | 0.00 | 0.00 | 43 | 1018.8 |
| 20260904044832 | 69 | 281 | 0.0 | 2.0 | 0.00 | 0.00 | 0.00 | 43 | 1018.8 |
| 20260904044519 | 69 | 267 | 0.0 | 2.0 | 0.00 | 0.00 | 0.00 | 42 | 1019.7 |
| 20260904044326 | 69 | 262 | 0.0 | 2.0 | 0.00 | 0.00 | 0.00 | 43 | 1019.0 |
| 20260904043821 | 69 | 294 | 0.0 | 1.0 | 0.00 | 0.00 | 0.00 | 43 | 1018.8 |
| 20260904043315 | 68 | 319 | 0.0 | 1.0 | 0.00 | 0.00 | 0.00 | 43 | 1018.8 |
| 20260904043014 | 68 | 331 | 0.0 | 1.0 | 0.00 | 0.00 | 0.00 | 42 | 1019.7 |
| 20260904042809 | 68 | 306 | 0.0 | 1.0 | 0.00 | 0.00 | 0.00 | 43 | 1019.0 |
| 20260904042306 | 69 | 304 | 0.0 | 1.0 | 0.00 | 0.00 | 0.00 | 42 | 1019.0 |
| 20260904041757 | 69 | 20 | 0.0 | 0.0 | 0.00 | 0.00 | 0.00 | 41 | 1019.1 |
| 20260904041526 | 69 | 41 | 0.0 | 0.0 | 0.00 | 0.00 | 0.00 | 40 | 1019.8 |
| 20260904041250 | 70 | 1 | 0.0 | 0.0 | 0.00 | 0.00 | 0.00 | 39 | 1019.1 |
| 20260904040744 | 70 | 20 | 0.0 | 0.0 | 0.00 | 0.00 | 0.00 | 38 | 1019.1 |
| 20260904040238 | 71 | 23 | 0.0 | 1.0 | 0.00 | 0.00 | 0.00 | 38 | 1019.1 |
| 20260904040016 | 71 | 30 | 0.0 | 1.0 | 0.00 | 0.00 | 0.00 | 37 | 1019.9 |
| 20260904035227 | 72 | 79 | 1.0 | 4.0 | 0.00 | 0.00 | 0.00 | 36 | 1019.1 |
| 20260904034720 | 73 | 68 | 2.0 | 5.0 | 0.00 | 0.00 | 0.00 | 36 | 1019.1 |
| 20260904034517 | 72 | 69 | 0.0 | 6.0 | 0.00 | 0.00 | 0.00 | 36 | 1019.8 |
| 20260904034214 | 73 | 73 | 2.0 | 5.0 | 0.00 | 0.00 | 0.00 | 36 | 1019.1 |
| 20260904033708 | 73 | 115 | 2.0 | 5.0 | 0.00 | 0.00 | 0.00 | 35 | 1019.1 |
| 20260904033017 | 72 | 135 | 1.0 | 9.0 | 0.00 | 0.00 | 0.00 | 33 | 1019.8 |
| 20260904032656 | 73 | 109 | 0.0 | 8.0 | 0.00 | 0.00 | 0.00 | 31 | 1018.8 |
| 20260904032150 | 73 | 107 | 0.0 | 3.0 | 0.00 | 0.00 | 0.00 | 30 | 1018.7 |
| 20260904031645 | 73 | 106 | 0.0 | 3.0 | 0.00 | 0.00 | 0.00 | 29 | 1018.7 |
| 20260904031519 | 73 | 111 | 1.0 | 3.0 | 0.00 | 0.00 | 0.00 | 28 | 1019.6 |
| 20260904031138 | 73 | 94 | 0.0 | 3.0 | 0.00 | 0.00 | 0.00 | 28 | 1018.6 |
| 20260904030639 | 73 | 96 | 0.0 | 3.0 | 0.00 | 0.00 | 0.00 | 28 | 1018.6 |
| 20260904030020 | 73 | 134 | 0.0 | 2.0 | 0.00 | 0.00 | 0.00 | 27 | 1019.4 |
| 20260904025639 | 73 | 100 | 0.0 | 1.0 | 0.00 | 0.00 | 0.00 | 27 | 1018.6 |
| 20260904025136 | 74 | 89 | 0.0 | 1.0 | 0.00 | 0.00 | 0.00 | 27 | 1018.5 |
| 20260904024634 | 74 | 91 | 0.0 | 1.0 | 0.00 | 0.00 | 0.00 | 27 | 1018.5 |
| 20260904024515 | 74 | 94 | 0.0 | 1.0 | 0.00 | 0.00 | 0.00 | 26 | 1019.0 |
| 20260904023633 | 74 | 85 | 0.0 | 2.0 | 0.00 | 0.00 | 0.00 | 27 | 1018.4 |
| 20260904023132 | 74 | 89 | 0.0 | 3.0 | 0.00 | 0.00 | 0.00 | 27 | 1018.2 |
| 20260904023020 | 73 | 89 | 0.0 | 3.0 | 0.00 | 0.00 | 0.00 | 27 | 1018.9 |
| 20260904022628 | 74 | 79 | 0.0 | 4.0 | 0.00 | 0.00 | 0.00 | 28 | 1018.2 |
| 20260904022128 | 74 | 89 | 1.0 | 4.0 | 0.00 | 0.00 | 0.00 | 27 | 1018.0 |
| 20260904021626 | 74 | 98 | 1.0 | 3.0 | 0.00 | 0.00 | 0.00 | 28 | 1018.1 |
| 20260904021520 | 74 | 121 | 1.0 | 6.0 | 0.00 | 0.00 | 0.00 | 27 | 1018.7 |
| 20260904021126 | 75 | 139 | 1.0 | 5.0 | 0.00 | 0.00 | 0.00 | 28 | 1018.0 |
| 20260904020625 | 75 | 111 | 1.0 | 5.0 | 0.00 | 0.00 | 0.00 | 27 | 1018.0 |
| 20260904020125 | 76 | 103 | 0.0 | 3.0 | 0.00 | 0.00 | 0.00 | 27 | 1018.0 |
| 20260904020033 | 76 | 70 | 0.0 | 2.0 | 0.00 | 0.00 | 0.00 | 26 | 1018.5 |
| 20260904015623 | 76 | 116 | 0.0 | 2.0 | 0.00 | 0.00 | 0.00 | 26 | 1017.9 |
| 20260904015121 | 77 | 106 | 0.0 | 1.0 | 0.00 | 0.00 | 0.00 | 26 | 1017.7 |
| 20260904014523 | 77 | 127 | 0.0 | 3.0 | 0.00 | 0.00 | 0.00 | 25 | 1018.5 |
| 20260904014119 | 78 | 124 | 1.0 | 4.0 | 0.00 | 0.00 | 0.00 | 25 | 1017.9 |
| 20260904013618 | 78 | 108 | 2.0 | 5.0 | 0.00 | 0.00 | 0.00 | 24 | 1017.6 |
| 20260904013113 | 78 | 113 | 2.0 | 5.0 | 0.00 | 0.00 | 0.00 | 24 | 1017.6 |
| 20260904013020 | 78 | 96 | 2.0 | 6.0 | 0.00 | 0.00 | 0.00 | 24 | 1018.3 |
| 20260904012613 | 79 | 140 | 1.0 | 6.0 | 0.00 | 0.00 | 0.00 | 24 | 1017.6 |
| 20260904012115 | 79 | 79 | 1.0 | 6.0 | 0.00 | 0.00 | 0.00 | 24 | 1017.7 |
| 20260904011614 | 79 | 131 | 2.0 | 7.0 | 0.00 | 0.00 | 0.00 | 24 | 1017.6 |
| 20260904011528 | 79 | 168 | 1.0 | 10.0 | 0.00 | 0.00 | 0.00 | 23 | 1018.3 |
| 20260904011114 | 80 | 129 | 3.0 | 9.0 | 0.00 | 0.00 | 0.00 | 23 | 1017.6 |
| 20260904010613 | 80 | 151 | 3.0 | 9.0 | 0.00 | 0.00 | 0.00 | 23 | 1017.6 |
| 20260904010114 | 80 | 110 | 3.0 | 9.0 | 0.00 | 0.00 | 0.00 | 23 | 1017.6 |
| 20260904010025 | 80 | 133 | 3.0 | 10.0 | 0.00 | 0.00 | 0.00 | 22 | 1018.2 |
| 20260904005614 | 80 | 108 | 4.0 | 12.0 | 0.00 | 0.00 | 0.00 | 23 | 1017.6 |
| 20260904005113 | 81 | 144 | 5.0 | 14.0 | 0.00 | 0.00 | 0.00 | 22 | 1017.5 |
| 20260904004614 | 81 | 143 | 5.0 | 10.0 | 0.00 | 0.00 | 0.00 | 22 | 1017.7 |
| 20260904004527 | 80 | 130 | 4.0 | 12.0 | 0.00 | 0.00 | 0.00 | 21 | 1018.3 |
| 20260904004109 | 81 | 134 | 5.0 | 12.0 | 0.00 | 0.00 | 0.00 | 21 | 1017.6 |
| 20260904003611 | 81 | 131 | 5.0 | 12.0 | 0.00 | 0.00 | 0.00 | 22 | 1017.6 |
| 20260904003110 | 81 | 110 | 4.0 | 15.0 | 0.00 | 0.00 | 0.00 | 21 | 1017.5 |
| 20260904003028 | 81 | 126 | 4.0 | 16.0 | 0.00 | 0.00 | 0.00 | 21 | 1018.2 |
| 20260904002611 | 81 | 112 | 4.0 | 15.0 | 0.00 | 0.00 | 0.00 | 22 | 1017.6 |
| 20260904002109 | 81 | 127 | 4.0 | 9.0 | 0.00 | 0.00 | 0.00 | 22 | 1017.6 |
| 20260904001610 | 82 | 77 | 4.0 | 11.0 | 0.00 | 0.00 | 0.00 | 22 | 1017.6 |
| 20260904001523 | 81 | 109 | 3.0 | 12.0 | 0.00 | 0.00 | 0.00 | 21 | 1018.3 |
| 20260904001110 | 82 | 163 | 4.0 | 11.0 | 0.00 | 0.00 | 0.00 | 21 | 1017.6 |
| 20260904000609 | 82 | 174 | 4.0 | 9.0 | 0.00 | 0.00 | 0.00 | 21 | 1017.5 |